Year,Month,Day,Hour,Minute,Value (Times are PST for windspeed in km/hr)
2015,11,01,00,00,1.10
2015,11,01,00,01,1.60
2015,11,01,00,02,1.60
2015,11,01,00,03,1.60
2015,11,01,00,04,1.60
2015,11,01,00,05,1.60
2015,11,01,00,06,1.60
2015,11,01,00,07,1.60
2015,11,01,00,08,1.60
2015,11,01,00,09,1.60
2015,11,01,00,10,3.70
2015,11,01,00,11,6.00
2015,11,01,00,12,2.50
2015,11,01,00,13,3.00
2015,11,01,00,14,3.50
2015,11,01,00,15,2.40
2015,11,01,00,16,2.60
2015,11,01,00,17,2.30
2015,11,01,00,18,1.70
2015,11,01,00,19,4.70
2015,11,01,00,20,3.80
2015,11,01,00,21,2.60
2015,11,01,00,22,1.70
2015,11,01,00,23,5.00
2015,11,01,00,24,5.00
2015,11,01,00,25,3.30
2015,11,01,00,26,1.20
2015,11,01,00,27,2.10
2015,11,01,00,28,3.10
2015,11,01,00,29,1.50
2015,11,01,00,30,3.60
2015,11,01,00,31,1.60
2015,11,01,00,32,2.40
2015,11,01,00,33,0.30
2015,11,01,00,34,0.30
2015,11,01,00,35,1.20
2015,11,01,00,36,1.60
2015,11,01,00,37,1.40
2015,11,01,00,38,0.90
2015,11,01,00,39,1.90
2015,11,01,00,40,1.00
2015,11,01,00,41,0.30
2015,11,01,00,42,1.20
2015,11,01,00,43,1.90
2015,11,01,00,44,3.40
2015,11,01,00,45,2.10
2015,11,01,00,46,2.50
2015,11,01,00,47,3.50
2015,11,01,00,48,2.50
2015,11,01,00,49,3.90
2015,11,01,00,50,3.60
2015,11,01,00,51,3.00
2015,11,01,00,52,3.70
2015,11,01,00,53,3.70
2015,11,01,00,54,6.20
2015,11,01,00,55,2.40
2015,11,01,00,56,0.90
2015,11,01,00,57,5.10
2015,11,01,00,58,5.70
2015,11,01,00,59,5.20
2015,11,01,01,00,2.40
2015,11,01,01,01,7.00
2015,11,01,01,02,3.60
2015,11,01,01,03,1.40
2015,11,01,01,04,2.50
2015,11,01,01,05,2.50
2015,11,01,01,06,4.40
2015,11,01,01,07,4.70
2015,11,01,01,08,2.20
2015,11,01,01,09,3.20
2015,11,01,01,10,5.70
2015,11,01,01,11,1.50
2015,11,01,01,12,4.80
2015,11,01,01,13,2.10
2015,11,01,01,14,0.10
2015,11,01,01,15,2.00
2015,11,01,01,16,1.80
2015,11,01,01,17,3.80
2015,11,01,01,18,5.10
2015,11,01,01,19,6.10
2015,11,01,01,20,3.50
2015,11,01,01,21,5.90
2015,11,01,01,22,6.20
2015,11,01,01,23,5.40
2015,11,01,01,24,4.40
2015,11,01,01,25,1.90
2015,11,01,01,26,0.70
2015,11,01,01,27,1.50
2015,11,01,01,28,2.20
2015,11,01,01,29,0.00
2015,11,01,01,30,3.00
2015,11,01,01,31,0.40
2015,11,01,01,32,0.90
2015,11,01,01,33,0.00
2015,11,01,01,34,1.10
2015,11,01,01,35,0.70
2015,11,01,01,36,0.20
2015,11,01,01,37,0.80
2015,11,01,01,38,0.90
2015,11,01,01,39,0.30
2015,11,01,01,40,0.10
2015,11,01,01,41,1.20
2015,11,01,01,42,0.00
2015,11,01,01,43,0.00
2015,11,01,01,44,0.00
2015,11,01,01,45,0.10
2015,11,01,01,46,0.50
2015,11,01,01,47,0.10
2015,11,01,01,48,0.00
2015,11,01,01,49,0.90
2015,11,01,01,50,1.20
2015,11,01,01,51,0.10
2015,11,01,01,52,0.00
2015,11,01,01,53,0.20
2015,11,01,01,54,0.00
2015,11,01,01,55,0.00
2015,11,01,01,56,0.00
2015,11,01,01,57,0.00
2015,11,01,01,58,0.00
2015,11,01,01,59,0.00
2015,11,01,02,02,1.70
2015,11,01,02,03,1.70
2015,11,01,02,04,2.10
2015,11,01,02,05,2.00
2015,11,01,02,06,0.10
2015,11,01,02,07,1.10
2015,11,01,02,08,2.40
2015,11,01,02,09,0.20
2015,11,01,02,10,1.50
2015,11,01,02,11,4.30
2015,11,01,02,12,1.80
2015,11,01,02,13,3.80
2015,11,01,02,14,2.00
2015,11,01,02,15,1.00
2015,11,01,02,16,1.00
2015,11,01,02,17,0.30
2015,11,01,02,18,0.10
2015,11,01,02,19,0.80
2015,11,01,02,20,1.40
2015,11,01,02,21,0.30
2015,11,01,02,22,0.70
2015,11,01,02,23,0.20
2015,11,01,02,24,0.10
2015,11,01,02,25,2.20
2015,11,01,02,26,2.00
2015,11,01,02,27,0.00
2015,11,01,02,28,0.00
2015,11,01,02,29,0.00
2015,11,01,02,30,0.00
2015,11,01,02,31,0.00
2015,11,01,02,32,0.00
2015,11,01,02,33,0.00
2015,11,01,02,34,0.00
2015,11,01,02,35,0.00
2015,11,01,02,36,0.00
2015,11,01,02,37,0.00
2015,11,01,02,38,0.00
2015,11,01,02,39,0.00
2015,11,01,02,40,0.00
2015,11,01,02,41,0.00
2015,11,01,02,42,0.00
2015,11,01,02,43,0.00
2015,11,01,02,44,0.00
2015,11,01,02,45,0.00
2015,11,01,02,46,0.00
2015,11,01,02,47,0.00
2015,11,01,02,48,0.00
2015,11,01,02,49,0.00
2015,11,01,02,50,0.00
2015,11,01,02,51,0.00
2015,11,01,02,52,0.00
2015,11,01,02,53,0.00
2015,11,01,02,54,0.20
2015,11,01,02,55,9.70
2015,11,01,02,56,14.40
2015,11,01,02,57,18.00
2015,11,01,02,58,11.90
2015,11,01,02,59,12.20
2015,11,01,03,00,11.00
2015,11,01,03,01,7.80
2015,11,01,03,02,8.60
2015,11,01,03,03,10.30
2015,11,01,03,04,5.30
2015,11,01,03,05,6.00
2015,11,01,03,06,7.10
2015,11,01,03,07,6.30
2015,11,01,03,08,9.70
2015,11,01,03,09,7.40
2015,11,01,03,10,7.30
2015,11,01,03,11,5.70
2015,11,01,03,12,6.00
2015,11,01,03,13,6.50
2015,11,01,03,14,6.60
2015,11,01,03,15,6.90
2015,11,01,03,16,5.80
2015,11,01,03,17,7.80
2015,11,01,03,18,11.70
2015,11,01,03,19,14.90
2015,11,01,03,20,13.10
2015,11,01,03,21,8.10
2015,11,01,03,22,9.00
2015,11,01,03,23,10.30
2015,11,01,03,24,7.90
2015,11,01,03,25,10.00
2015,11,01,03,26,10.00
2015,11,01,03,27,13.60
2015,11,01,03,28,13.70
2015,11,01,03,29,8.80
2015,11,01,03,30,8.70
2015,11,01,03,31,2.30
2015,11,01,03,32,2.50
2015,11,01,03,33,6.00
2015,11,01,03,34,4.60
2015,11,01,03,35,3.80
2015,11,01,03,36,3.00
2015,11,01,03,37,4.70
2015,11,01,03,38,1.00
2015,11,01,03,39,1.70
2015,11,01,03,40,3.00
2015,11,01,03,41,2.40
2015,11,01,03,42,3.50
2015,11,01,03,43,0.40
2015,11,01,03,44,0.00
2015,11,01,03,45,1.80
2015,11,01,03,46,1.40
2015,11,01,03,47,3.00
2015,11,01,03,48,2.30
2015,11,01,03,49,2.40
2015,11,01,03,50,2.50
2015,11,01,03,51,2.80
2015,11,01,03,52,2.00
2015,11,01,03,53,2.20
2015,11,01,03,54,1.80
2015,11,01,03,55,2.30
2015,11,01,03,56,1.20
2015,11,01,03,57,1.20
2015,11,01,03,58,1.50
2015,11,01,03,59,2.80
2015,11,01,04,00,1.70
2015,11,01,04,01,0.20
2015,11,01,04,02,0.30
2015,11,01,04,03,0.90
2015,11,01,04,04,1.60
2015,11,01,04,05,0.80
2015,11,01,04,06,3.30
2015,11,01,04,07,2.40
2015,11,01,04,08,2.00
2015,11,01,04,09,3.50
2015,11,01,04,10,1.50
2015,11,01,04,11,1.20
2015,11,01,04,12,0.50
2015,11,01,04,13,0.80
2015,11,01,04,14,1.00
2015,11,01,04,15,0.70
2015,11,01,04,16,1.90
2015,11,01,04,17,0.30
2015,11,01,04,18,0.90
2015,11,01,04,19,0.70
2015,11,01,04,20,0.00
2015,11,01,04,21,0.00
2015,11,01,04,22,0.60
2015,11,01,04,23,0.30
2015,11,01,04,24,0.20
2015,11,01,04,25,0.30
2015,11,01,04,26,0.00
2015,11,01,04,27,0.00
2015,11,01,04,28,0.00
2015,11,01,04,29,0.00
2015,11,01,04,30,0.00
2015,11,01,04,31,0.30
2015,11,01,04,32,1.50
2015,11,01,04,33,1.30
2015,11,01,04,34,0.00
2015,11,01,04,35,0.00
2015,11,01,04,36,0.00
2015,11,01,04,37,0.60
2015,11,01,04,38,1.10
2015,11,01,04,39,0.80
2015,11,01,04,40,0.10
2015,11,01,04,41,0.70
2015,11,01,04,42,5.20
2015,11,01,04,43,11.50
2015,11,01,04,44,13.20
2015,11,01,04,45,7.90
2015,11,01,04,46,8.10
2015,11,01,04,47,9.30
2015,11,01,04,48,8.00
2015,11,01,04,49,8.30
2015,11,01,04,50,10.60
2015,11,01,04,51,9.40
2015,11,01,04,52,11.40
2015,11,01,04,53,7.90
2015,11,01,04,54,10.60
2015,11,01,04,55,18.50
2015,11,01,04,56,9.00
2015,11,01,04,57,9.20
2015,11,01,04,58,9.20
2015,11,01,04,59,12.30
2015,11,01,05,00,7.90
2015,11,01,05,01,13.90
2015,11,01,05,02,10.20
2015,11,01,05,03,10.00
2015,11,01,05,04,13.20
2015,11,01,05,05,12.60
2015,11,01,05,06,6.70
2015,11,01,05,07,6.40
2015,11,01,05,08,6.20
2015,11,01,05,09,7.40
2015,11,01,05,10,7.20
2015,11,01,05,11,6.70
2015,11,01,05,12,6.40
2015,11,01,05,13,7.10
2015,11,01,05,14,4.00
2015,11,01,05,15,4.20
2015,11,01,05,16,6.90
2015,11,01,05,17,3.80
2015,11,01,05,18,3.00
2015,11,01,05,19,4.20
2015,11,01,05,20,5.30
2015,11,01,05,21,5.00
2015,11,01,05,22,3.60
2015,11,01,05,23,2.80
2015,11,01,05,24,7.00
2015,11,01,05,25,2.60
2015,11,01,05,26,9.80
2015,11,01,05,27,3.90
2015,11,01,05,28,3.00
2015,11,01,05,29,3.50
2015,11,01,05,30,3.20
2015,11,01,05,31,2.30
2015,11,01,05,32,7.40
2015,11,01,05,33,6.40
2015,11,01,05,34,4.50
2015,11,01,05,35,4.30
2015,11,01,05,36,4.30
2015,11,01,05,37,2.50
2015,11,01,05,38,5.20
2015,11,01,05,39,6.10
2015,11,01,05,40,2.40
2015,11,01,05,41,4.80
2015,11,01,05,42,2.70
2015,11,01,05,43,0.70
2015,11,01,05,44,2.50
2015,11,01,05,45,5.90
2015,11,01,05,46,4.20
2015,11,01,05,47,6.60
2015,11,01,05,48,3.40
2015,11,01,05,49,2.30
2015,11,01,05,50,4.40
2015,11,01,05,51,6.70
2015,11,01,05,52,5.00
2015,11,01,05,53,2.10
2015,11,01,05,54,4.90
2015,11,01,05,55,3.40
2015,11,01,05,56,4.80
2015,11,01,05,57,2.20
2015,11,01,05,58,1.00
2015,11,01,05,59,1.90
2015,11,01,06,00,3.00
2015,11,01,06,01,3.50
2015,11,01,06,02,2.10
2015,11,01,06,03,1.80
2015,11,01,06,04,1.90
2015,11,01,06,05,0.70
2015,11,01,06,06,2.40
2015,11,01,06,07,0.10
2015,11,01,06,08,0.80
2015,11,01,06,09,1.30
2015,11,01,06,10,1.80
2015,11,01,06,11,1.10
2015,11,01,06,12,3.60
2015,11,01,06,13,0.30
2015,11,01,06,14,2.00
2015,11,01,06,15,0.70
2015,11,01,06,16,0.90
2015,11,01,06,17,1.50
2015,11,01,06,18,2.40
2015,11,01,06,19,0.70
2015,11,01,06,20,1.90
2015,11,01,06,21,0.90
2015,11,01,06,22,3.40
2015,11,01,06,23,3.40
2015,11,01,06,24,1.00
2015,11,01,06,25,1.60
2015,11,01,06,26,0.50
2015,11,01,06,27,0.30
2015,11,01,06,28,0.60
2015,11,01,06,29,0.90
2015,11,01,06,30,0.00
2015,11,01,06,31,0.10
2015,11,01,06,32,1.90
2015,11,01,06,33,1.40
2015,11,01,06,34,0.30
2015,11,01,06,35,0.20
2015,11,01,06,36,0.60
2015,11,01,06,37,1.60
2015,11,01,06,38,2.10
2015,11,01,06,39,1.90
2015,11,01,06,40,2.00
2015,11,01,06,41,1.20
2015,11,01,06,42,0.50
2015,11,01,06,43,0.50
2015,11,01,06,44,0.00
2015,11,01,06,45,0.00
2015,11,01,06,46,0.20
2015,11,01,06,47,0.50
2015,11,01,06,48,0.20
2015,11,01,06,49,0.00
2015,11,01,06,50,0.10
2015,11,01,06,51,0.10
2015,11,01,06,52,0.20
2015,11,01,06,53,0.00
2015,11,01,06,54,0.00
2015,11,01,06,55,0.40
2015,11,01,06,56,0.70
2015,11,01,06,57,0.20
2015,11,01,06,58,1.40
2015,11,01,06,59,2.00
2015,11,01,07,00,3.00
2015,11,01,07,01,1.50
2015,11,01,07,02,1.90
2015,11,01,07,03,1.40
2015,11,01,07,04,1.40
2015,11,01,07,05,1.10
2015,11,01,07,06,0.50
2015,11,01,07,07,0.50
2015,11,01,07,08,0.60
2015,11,01,07,09,0.00
2015,11,01,07,10,0.90
2015,11,01,07,11,0.10
2015,11,01,07,12,0.20
2015,11,01,07,13,3.30
2015,11,01,07,14,0.90
2015,11,01,07,15,0.50
2015,11,01,07,16,1.50
2015,11,01,07,17,1.00
2015,11,01,07,18,1.40
2015,11,01,07,19,0.40
2015,11,01,07,20,0.70
2015,11,01,07,21,0.20
2015,11,01,07,22,0.00
2015,11,01,07,23,0.00
2015,11,01,07,24,0.00
2015,11,01,07,25,0.30
2015,11,01,07,26,2.10
2015,11,01,07,27,1.40
2015,11,01,07,28,2.40
2015,11,01,07,29,2.10
2015,11,01,07,30,0.90
2015,11,01,07,31,2.50
2015,11,01,07,32,1.80
2015,11,01,07,33,2.10
2015,11,01,07,34,2.10
2015,11,01,07,35,2.70
2015,11,01,07,36,1.80
2015,11,01,07,37,4.00
2015,11,01,07,38,3.10
2015,11,01,07,39,7.00
2015,11,01,07,40,0.40
2015,11,01,07,41,1.20
2015,11,01,07,42,0.60
2015,11,01,07,43,0.60
2015,11,01,07,44,1.90
2015,11,01,07,45,1.40
2015,11,01,07,46,1.40
2015,11,01,07,47,2.50
2015,11,01,07,48,1.80
2015,11,01,07,49,1.70
2015,11,01,07,50,0.40
2015,11,01,07,51,0.00
2015,11,01,07,52,0.10
2015,11,01,07,53,0.10
2015,11,01,07,54,0.40
2015,11,01,07,55,0.60
2015,11,01,07,56,1.30
2015,11,01,07,57,0.00
2015,11,01,07,58,1.90
2015,11,01,07,59,0.50
2015,11,01,08,00,0.80
2015,11,01,08,01,0.90
2015,11,01,08,02,1.40
2015,11,01,08,03,2.60
2015,11,01,08,04,1.90
2015,11,01,08,05,1.20
2015,11,01,08,06,0.30
2015,11,01,08,07,0.70
2015,11,01,08,08,0.30
2015,11,01,08,09,0.30
2015,11,01,08,10,0.90
2015,11,01,08,11,0.00
2015,11,01,08,12,0.00
2015,11,01,08,13,1.70
2015,11,01,08,14,0.60
2015,11,01,08,15,0.80
2015,11,01,08,16,2.10
2015,11,01,08,17,2.10
2015,11,01,08,18,0.80
2015,11,01,08,19,1.00
2015,11,01,08,20,1.10
2015,11,01,08,21,0.10
2015,11,01,08,22,0.20
2015,11,01,08,23,1.20
2015,11,01,08,24,1.10
2015,11,01,08,25,0.60
2015,11,01,08,26,0.00
2015,11,01,08,27,2.10
2015,11,01,08,28,2.40
2015,11,01,08,29,2.50
2015,11,01,08,30,1.20
2015,11,01,08,31,0.80
2015,11,01,08,32,2.90
2015,11,01,08,33,0.50
2015,11,01,08,34,1.30
2015,11,01,08,35,2.70
2015,11,01,08,36,2.60
2015,11,01,08,37,3.10
2015,11,01,08,38,1.40
2015,11,01,08,39,0.80
2015,11,01,08,40,1.90
2015,11,01,08,41,1.10
2015,11,01,08,42,1.40
2015,11,01,08,43,1.20
2015,11,01,08,44,0.10
2015,11,01,08,45,0.60
2015,11,01,08,46,0.60
2015,11,01,08,47,0.30
2015,11,01,08,48,1.30
2015,11,01,08,49,1.20
2015,11,01,08,50,0.30
2015,11,01,08,51,0.00
2015,11,01,08,52,0.60
2015,11,01,08,53,2.10
2015,11,01,08,54,2.30
2015,11,01,08,55,1.30
2015,11,01,08,56,0.00
2015,11,01,08,57,0.30
2015,11,01,08,58,0.30
2015,11,01,08,59,0.20
2015,11,01,09,00,0.20
2015,11,01,09,01,0.10
2015,11,01,09,02,0.50
2015,11,01,09,03,1.70
2015,11,01,09,04,0.10
2015,11,01,09,05,0.70
2015,11,01,09,06,2.60
2015,11,01,09,07,1.90
2015,11,01,09,08,2.40
2015,11,01,09,09,1.60
2015,11,01,09,10,2.40
2015,11,01,09,11,1.20
2015,11,01,09,12,1.90
2015,11,01,09,13,4.20
2015,11,01,09,14,3.30
2015,11,01,09,15,6.40
2015,11,01,09,16,4.60
2015,11,01,09,17,3.20
2015,11,01,09,18,0.00
2015,11,01,09,19,0.30
2015,11,01,09,20,0.10
2015,11,01,09,21,1.70
2015,11,01,09,22,1.50
2015,11,01,09,23,1.90
2015,11,01,09,24,0.20
2015,11,01,09,25,0.00
2015,11,01,09,26,0.30
2015,11,01,09,27,0.30
2015,11,01,09,28,0.00
2015,11,01,09,29,0.00
2015,11,01,09,30,0.00
2015,11,01,09,31,0.00
2015,11,01,09,32,0.00
2015,11,01,09,33,0.00
2015,11,01,09,34,0.00
2015,11,01,09,35,0.00
2015,11,01,09,36,0.00
2015,11,01,09,37,0.00
2015,11,01,09,38,0.00
2015,11,01,09,39,0.00
2015,11,01,09,40,0.00
2015,11,01,09,41,0.00
2015,11,01,09,42,0.00
2015,11,01,09,43,0.00
2015,11,01,09,44,0.00
2015,11,01,09,45,0.00
2015,11,01,09,46,0.00
2015,11,01,09,47,0.00
2015,11,01,09,48,0.10
2015,11,01,09,49,1.00
2015,11,01,09,50,0.60
2015,11,01,09,51,1.50
2015,11,01,09,52,0.20
2015,11,01,09,53,0.10
2015,11,01,09,54,0.40
2015,11,01,09,55,0.30
2015,11,01,09,56,0.50
2015,11,01,09,57,0.10
2015,11,01,09,58,0.10
2015,11,01,09,59,1.00
2015,11,01,10,00,2.60
2015,11,01,10,01,2.30
2015,11,01,10,02,1.40
2015,11,01,10,03,1.70
2015,11,01,10,04,4.10
2015,11,01,10,05,4.40
2015,11,01,10,06,2.30
2015,11,01,10,07,2.90
2015,11,01,10,08,1.50
2015,11,01,10,09,3.30
2015,11,01,10,10,4.10
2015,11,01,10,11,1.00
2015,11,01,10,12,1.50
2015,11,01,10,13,5.10
2015,11,01,10,14,3.80
2015,11,01,10,15,4.00
2015,11,01,10,16,6.10
2015,11,01,10,17,4.90
2015,11,01,10,18,5.00
2015,11,01,10,19,8.10
2015,11,01,10,20,4.40
2015,11,01,10,21,3.80
2015,11,01,10,22,1.00
2015,11,01,10,23,2.90
2015,11,01,10,24,2.80
2015,11,01,10,25,4.30
2015,11,01,10,26,3.80
2015,11,01,10,27,2.30
2015,11,01,10,28,0.40
2015,11,01,10,29,2.80
2015,11,01,10,30,3.00
2015,11,01,10,31,3.70
2015,11,01,10,32,3.90
2015,11,01,10,33,5.30
2015,11,01,10,34,3.00
2015,11,01,10,35,0.30
2015,11,01,10,36,3.50
2015,11,01,10,37,0.60
2015,11,01,10,38,0.80
2015,11,01,10,39,1.60
2015,11,01,10,40,3.90
2015,11,01,10,41,1.40
2015,11,01,10,42,0.60
2015,11,01,10,43,1.70
2015,11,01,10,44,1.00
2015,11,01,10,45,0.10
2015,11,01,10,46,3.00
2015,11,01,10,47,1.80
2015,11,01,10,48,2.70
2015,11,01,10,49,4.70
2015,11,01,10,50,5.50
2015,11,01,10,51,0.90
2015,11,01,10,52,1.40
2015,11,01,10,53,1.90
2015,11,01,10,54,2.60
2015,11,01,10,55,3.00
2015,11,01,10,56,2.50
2015,11,01,10,57,3.20
2015,11,01,10,58,3.30
2015,11,01,10,59,2.40
2015,11,01,11,00,1.40
2015,11,01,11,01,4.90
2015,11,01,11,02,3.80
2015,11,01,11,03,3.40
2015,11,01,11,04,5.50
2015,11,01,11,05,4.10
2015,11,01,11,06,2.00
2015,11,01,11,07,0.00
2015,11,01,11,08,1.80
2015,11,01,11,09,0.40
2015,11,01,11,10,1.60
2015,11,01,11,11,2.10
2015,11,01,11,12,2.50
2015,11,01,11,13,0.10
2015,11,01,11,14,0.50
2015,11,01,11,15,5.30
2015,11,01,11,16,3.00
2015,11,01,11,17,2.50
2015,11,01,11,18,1.90
2015,11,01,11,19,3.10
2015,11,01,11,20,0.30
2015,11,01,11,21,0.10
2015,11,01,11,22,0.00
2015,11,01,11,23,1.40
2015,11,01,11,24,1.70
2015,11,01,11,25,3.10
2015,11,01,11,26,3.00
2015,11,01,11,27,1.60
2015,11,01,11,28,0.30
2015,11,01,11,29,1.70
2015,11,01,11,30,0.90
2015,11,01,11,31,0.30
2015,11,01,11,32,1.30
2015,11,01,11,33,1.00
2015,11,01,11,34,1.40
2015,11,01,11,35,2.50
2015,11,01,11,36,1.90
2015,11,01,11,37,0.60
2015,11,01,11,38,0.00
2015,11,01,11,39,0.20
2015,11,01,11,40,0.10
2015,11,01,11,41,0.00
2015,11,01,11,42,0.00
2015,11,01,11,43,0.50
2015,11,01,11,44,0.50
2015,11,01,11,45,0.30
2015,11,01,11,46,2.00
2015,11,01,11,47,0.90
2015,11,01,11,48,0.60
2015,11,01,11,49,1.40
2015,11,01,11,50,1.20
2015,11,01,11,51,0.70
2015,11,01,11,52,0.30
2015,11,01,11,53,1.00
2015,11,01,11,54,0.30
2015,11,01,11,55,0.20
2015,11,01,11,56,0.80
2015,11,01,11,57,1.40
2015,11,01,11,58,0.50
2015,11,01,11,59,0.10
2015,11,01,12,00,0.30
2015,11,01,12,01,0.30
2015,11,01,12,02,1.30
2015,11,01,12,03,1.00
2015,11,01,12,04,2.10
2015,11,01,12,05,2.10
2015,11,01,12,06,4.10
2015,11,01,12,07,1.90
2015,11,01,12,08,1.60
2015,11,01,12,09,1.50
2015,11,01,12,10,4.10
2015,11,01,12,11,3.50
2015,11,01,12,12,2.90
2015,11,01,12,13,1.00
2015,11,01,12,14,0.10
2015,11,01,12,15,0.10
2015,11,01,12,16,0.80
2015,11,01,12,17,0.20
2015,11,01,12,18,0.00
2015,11,01,12,19,0.00
2015,11,01,12,20,0.10
2015,11,01,12,21,0.10
2015,11,01,12,22,2.90
2015,11,01,12,23,4.20
2015,11,01,12,24,2.20
2015,11,01,12,25,0.30
2015,11,01,12,26,0.00
2015,11,01,12,27,1.10
2015,11,01,12,28,0.80
2015,11,01,12,29,2.30
2015,11,01,12,30,0.90
2015,11,01,12,31,1.20
2015,11,01,12,32,4.60
2015,11,01,12,33,3.90
2015,11,01,12,34,2.40
2015,11,01,12,35,3.10
2015,11,01,12,36,2.80
2015,11,01,12,37,0.00
2015,11,01,12,38,0.00
2015,11,01,12,39,1.70
2015,11,01,12,40,5.40
2015,11,01,12,41,5.00
2015,11,01,12,42,5.30
2015,11,01,12,43,4.80
2015,11,01,12,44,0.60
2015,11,01,12,45,2.90
2015,11,01,12,46,4.00
2015,11,01,12,47,3.50
2015,11,01,12,48,0.80
2015,11,01,12,49,2.00
2015,11,01,12,50,0.10
2015,11,01,12,51,1.80
2015,11,01,12,52,0.10
2015,11,01,12,53,0.70
2015,11,01,12,54,0.20
2015,11,01,12,55,0.80
2015,11,01,12,56,3.60
2015,11,01,12,57,1.50
2015,11,01,12,58,3.60
2015,11,01,12,59,3.80
2015,11,01,13,00,1.30
2015,11,01,13,01,1.10
2015,11,01,13,02,2.50
2015,11,01,13,03,2.80
2015,11,01,13,04,0.90
2015,11,01,13,05,1.00
2015,11,01,13,06,4.40
2015,11,01,13,07,1.90
2015,11,01,13,08,0.70
2015,11,01,13,09,1.50
2015,11,01,13,10,1.90
2015,11,01,13,11,1.80
2015,11,01,13,12,4.70
2015,11,01,13,13,3.90
2015,11,01,13,14,5.50
2015,11,01,13,15,3.00
2015,11,01,13,16,2.50
2015,11,01,13,17,3.00
2015,11,01,13,18,3.80
2015,11,01,13,19,3.70
2015,11,01,13,20,6.50
2015,11,01,13,21,4.00
2015,11,01,13,22,2.20
2015,11,01,13,23,3.50
2015,11,01,13,24,1.50
2015,11,01,13,25,2.40
2015,11,01,13,26,2.30
2015,11,01,13,27,0.90
2015,11,01,13,28,3.60
2015,11,01,13,29,3.20
2015,11,01,13,30,3.60
2015,11,01,13,31,3.30
2015,11,01,13,32,2.90
2015,11,01,13,33,3.70
2015,11,01,13,34,2.30
2015,11,01,13,35,2.40
2015,11,01,13,36,4.20
2015,11,01,13,37,2.70
2015,11,01,13,38,0.90
2015,11,01,13,39,0.10
2015,11,01,13,40,1.50
2015,11,01,13,41,2.30
2015,11,01,13,42,2.00
2015,11,01,13,43,3.80
2015,11,01,13,44,1.80
2015,11,01,13,45,3.70
2015,11,01,13,46,6.80
2015,11,01,13,47,3.10
2015,11,01,13,48,4.50
2015,11,01,13,49,6.00
2015,11,01,13,50,4.30
2015,11,01,13,51,0.60
2015,11,01,13,52,1.90
2015,11,01,13,53,8.10
2015,11,01,13,54,5.60
2015,11,01,13,55,11.40
2015,11,01,13,56,6.50
2015,11,01,13,57,3.90
2015,11,01,13,58,7.70
2015,11,01,13,59,3.90
2015,11,01,14,00,4.20
2015,11,01,14,01,4.30
2015,11,01,14,02,6.80
2015,11,01,14,03,4.60
2015,11,01,14,04,7.00
2015,11,01,14,05,2.10
2015,11,01,14,06,1.00
2015,11,01,14,07,2.20
2015,11,01,14,08,4.20
2015,11,01,14,09,6.80
2015,11,01,14,10,4.20
2015,11,01,14,11,1.60
2015,11,01,14,12,1.10
2015,11,01,14,13,2.60
2015,11,01,14,14,1.60
2015,11,01,14,15,0.60
2015,11,01,14,16,2.60
2015,11,01,14,17,5.10
2015,11,01,14,18,5.70
2015,11,01,14,19,2.80
2015,11,01,14,20,2.20
2015,11,01,14,21,3.80
2015,11,01,14,22,3.60
2015,11,01,14,23,2.40
2015,11,01,14,24,0.70
2015,11,01,14,25,0.00
2015,11,01,14,26,0.20
2015,11,01,14,27,0.10
2015,11,01,14,28,0.00
2015,11,01,14,29,0.10
2015,11,01,14,30,1.70
2015,11,01,14,31,0.50
2015,11,01,14,32,1.40
2015,11,01,14,33,2.40
2015,11,01,14,34,2.40
2015,11,01,14,35,2.10
2015,11,01,14,36,2.30
2015,11,01,14,37,7.00
2015,11,01,14,38,7.90
2015,11,01,14,39,6.40
2015,11,01,14,40,1.80
2015,11,01,14,41,5.80
2015,11,01,14,42,2.70
2015,11,01,14,43,3.50
2015,11,01,14,44,2.60
2015,11,01,14,45,5.10
2015,11,01,14,46,7.50
2015,11,01,14,47,5.90
2015,11,01,14,48,7.60
2015,11,01,14,49,10.20
2015,11,01,14,50,7.60
2015,11,01,14,51,7.60
2015,11,01,14,52,5.50
2015,11,01,14,53,8.90
2015,11,01,14,54,6.90
2015,11,01,14,55,5.50
2015,11,01,14,56,5.60
2015,11,01,14,57,3.80
2015,11,01,14,58,8.30
2015,11,01,14,59,7.60
2015,11,01,15,00,6.90
2015,11,01,15,01,8.50
2015,11,01,15,02,6.00
2015,11,01,15,03,5.10
2015,11,01,15,04,6.90
2015,11,01,15,05,3.50
2015,11,01,15,06,3.90
2015,11,01,15,07,7.50
2015,11,01,15,08,6.40
2015,11,01,15,09,8.00
2015,11,01,15,10,8.10
2015,11,01,15,11,8.60
2015,11,01,15,12,7.50
2015,11,01,15,13,8.30
2015,11,01,15,14,7.60
2015,11,01,15,15,8.10
2015,11,01,15,16,10.80
2015,11,01,15,17,9.10
2015,11,01,15,18,5.50
2015,11,01,15,19,6.50
2015,11,01,15,20,13.80
2015,11,01,15,21,10.30
2015,11,01,15,22,7.80
2015,11,01,15,23,6.60
2015,11,01,15,24,9.90
2015,11,01,15,25,3.00
2015,11,01,15,26,9.10
2015,11,01,15,27,3.90
2015,11,01,15,28,3.00
2015,11,01,15,29,7.20
2015,11,01,15,30,7.50
2015,11,01,15,31,8.40
2015,11,01,15,32,8.20
2015,11,01,15,33,4.50
2015,11,01,15,34,8.60
2015,11,01,15,35,11.00
2015,11,01,15,36,8.50
2015,11,01,15,37,7.00
2015,11,01,15,38,7.50
2015,11,01,15,39,5.50
2015,11,01,15,40,5.70
2015,11,01,15,41,8.60
2015,11,01,15,42,6.60
2015,11,01,15,43,5.10
2015,11,01,15,44,5.10
2015,11,01,15,45,6.40
2015,11,01,15,46,8.90
2015,11,01,15,47,8.50
2015,11,01,15,48,4.60
2015,11,01,15,49,3.60
2015,11,01,15,50,5.70
2015,11,01,15,51,6.10
2015,11,01,15,52,6.60
2015,11,01,15,53,8.00
2015,11,01,15,54,14.20
2015,11,01,15,55,10.00
2015,11,01,15,56,7.10
2015,11,01,15,57,7.50
2015,11,01,15,58,7.30
2015,11,01,15,59,3.30
2015,11,01,16,00,3.10
2015,11,01,16,01,5.70
2015,11,01,16,02,8.50
2015,11,01,16,03,6.00
2015,11,01,16,04,7.20
2015,11,01,16,05,5.20
2015,11,01,16,06,5.00
2015,11,01,16,07,4.90
2015,11,01,16,08,4.20
2015,11,01,16,09,5.00
2015,11,01,16,10,4.90
2015,11,01,16,11,8.50
2015,11,01,16,12,6.90
2015,11,01,16,13,8.00
2015,11,01,16,14,6.70
2015,11,01,16,15,6.40
2015,11,01,16,16,9.00
2015,11,01,16,17,8.10
2015,11,01,16,18,7.40
2015,11,01,16,19,5.50
2015,11,01,16,20,4.10
2015,11,01,16,21,7.40
2015,11,01,16,22,7.80
2015,11,01,16,23,7.40
2015,11,01,16,24,2.90
2015,11,01,16,25,5.50
2015,11,01,16,26,3.90
2015,11,01,16,27,4.00
2015,11,01,16,28,1.00
2015,11,01,16,29,1.30
2015,11,01,16,30,5.70
2015,11,01,16,31,3.10
2015,11,01,16,32,2.70
2015,11,01,16,33,4.40
2015,11,01,16,34,10.90
2015,11,01,16,35,6.10
2015,11,01,16,36,7.50
2015,11,01,16,37,8.90
2015,11,01,16,38,3.60
2015,11,01,16,39,2.60
2015,11,01,16,40,6.70
2015,11,01,16,41,6.30
2015,11,01,16,42,5.10
2015,11,01,16,43,3.50
2015,11,01,16,44,5.80
2015,11,01,16,45,6.20
2015,11,01,16,46,5.70
2015,11,01,16,47,4.70
2015,11,01,16,48,11.40
2015,11,01,16,49,8.80
2015,11,01,16,50,9.10
2015,11,01,16,51,8.90
2015,11,01,16,52,5.40
2015,11,01,16,53,4.70
2015,11,01,16,54,4.70
2015,11,01,16,55,5.30
2015,11,01,16,56,2.50
2015,11,01,16,57,6.70
2015,11,01,16,58,8.60
2015,11,01,16,59,4.70
2015,11,01,17,00,5.10
2015,11,01,17,01,6.70
2015,11,01,17,02,5.20
2015,11,01,17,03,6.90
2015,11,01,17,04,6.30
2015,11,01,17,05,8.30
2015,11,01,17,06,5.20
2015,11,01,17,07,5.60
2015,11,01,17,08,5.50
2015,11,01,17,09,2.40
2015,11,01,17,10,3.10
2015,11,01,17,11,3.00
2015,11,01,17,12,6.00
2015,11,01,17,13,5.90
2015,11,01,17,14,4.10
2015,11,01,17,15,5.30
2015,11,01,17,16,4.80
2015,11,01,17,17,5.30
2015,11,01,17,18,6.90
2015,11,01,17,19,2.50
2015,11,01,17,20,4.60
2015,11,01,17,21,4.20
2015,11,01,17,22,5.50
2015,11,01,17,23,13.00
2015,11,01,17,24,6.10
2015,11,01,17,25,6.80
2015,11,01,17,26,6.20
2015,11,01,17,27,5.00
2015,11,01,17,28,3.10
2015,11,01,17,29,4.10
2015,11,01,17,30,5.30
2015,11,01,17,31,7.50
2015,11,01,17,32,4.70
2015,11,01,17,33,6.10
2015,11,01,17,34,6.10
2015,11,01,17,35,6.40
2015,11,01,17,36,2.50
2015,11,01,17,37,4.30
2015,11,01,17,38,9.20
2015,11,01,17,39,7.50
2015,11,01,17,40,3.70
2015,11,01,17,41,9.30
2015,11,01,17,42,1.40
2015,11,01,17,43,1.90
2015,11,01,17,44,1.90
2015,11,01,17,45,8.80
2015,11,01,17,46,6.60
2015,11,01,17,47,6.30
2015,11,01,17,48,5.30
2015,11,01,17,49,3.80
2015,11,01,17,50,5.60
2015,11,01,17,51,4.90
2015,11,01,17,52,2.90
2015,11,01,17,53,3.10
2015,11,01,17,54,9.80
2015,11,01,17,55,9.10
2015,11,01,17,56,3.90
2015,11,01,17,57,3.50
2015,11,01,17,58,2.50
2015,11,01,17,59,7.10
2015,11,01,18,00,2.20
2015,11,01,18,01,4.90
2015,11,01,18,02,6.90
2015,11,01,18,03,7.50
2015,11,01,18,04,8.50
2015,11,01,18,05,9.30
2015,11,01,18,06,8.20